Weather History for La Crosse, WI

Change the Weather History Date:

Monday, June 3, 2013

  Actual Average Record
Temperature  
Mean Temperature 59 °F 65 °F  
Max Temperature 72 °F 76 °F 93 °F (2011)
Min Temperature 46 °F 54 °F 38 °F (1946)
Degree Days  
Heating Degree Days 6 3  
Month to date heating degree days 16 9  
Since 1 June heating degree days 16  
Since 1 July heating degree days 7443 7166  
Cooling Degree Days 0 3  
Month to date cooling degree days 0 9  
Year to date cooling degree days 60 57  
Since 1 June cooling degree days 0  
Growing Degree Days 8 (Base 50)    
Moisture  
Dew Point 45 °F    
Average Humidity 67    
Maximum Humidity 100    
Minimum Humidity 33    
Precipitation  
Precipitation 0.00 in 0.14 in 1.74 in (1873)
Month to date precipitation 0.21 0.40  
Year to date precipitation 19.14 11.47  
Snow  
Snow 0.00 in 0.00 in 0.00 in (2002)
Month to date snowfall 0.0 0.0  
Since 1 June snowfall 0.0  
Since 1 July snowfall 60.6 43.3  
Snow Depth 0.00 in    
Sea Level Pressure  
Sea Level Pressure 30.05 in    
Wind  
Wind Speed 3 mph (SSE)    
Max Wind Speed 9 mph    
Max Gust Speed 17 mph    
Visibility 10 miles    
Events      
T = Trace of Precipitation, MM = Missing Value Source: NWS Daily Summary

Daily Weather History Graph

Daily Weather History Graph

Search for Another Location

Airport:

Trip Planner

Search our weather history database for the weather conditions in past years. The results will help you decide how hot, cold, wet, or windy it might be!

Date:

Astronomy

Jun. 03, 2013 Rise Set
Actual Time 5:24 AM CDT 8:42 PM CDT
Civil Twilight 4:49 AM CDT 9:17 PM CDT
Nautical Twilight 4:03 AM CDT 10:03 PM CDT
Astronomical Twilight 3:06 AM CDT 11:01 PM CDT
Moon 2:31 AM CDT (6/3) 4:05 PM CDT (6/3)
Length of Visible Light 16h 28m
Length of Day
15h 17m
Waning Crescent, 22% of the Moon is Illuminated
Jun 3
Waning Crescent
Jun 8
New
Jun 16
First Quarter
Jun 23
Full
Jun 29
Last Quarter

Hourly Weather History & Observations

Time (CDT) Temp. Windchill Dew Point Humidity Pressure Visibility Wind Dir Wind Speed Gust Speed Precip Events Conditions
12:53 AM 48.9 °F - 45.0 °F 86% 30.05 in 10.0 mi SE 4.6 mph - N/A   Clear
1:53 AM 48.0 °F - 45.0 °F 89% 30.04 in 10.0 mi SE 4.6 mph - N/A   Clear
2:53 AM 46.9 °F - 44.1 °F 90% 30.04 in 10.0 mi ESE 4.6 mph - N/A   Clear
3:53 AM 46.0 °F 44.8 °F 44.1 °F 93% 30.05 in 10.0 mi ESE 3.5 mph - N/A   Clear
4:34 AM 46.4 °F 43.5 °F 44.6 °F 93% 30.05 in 10.0 mi SE 5.8 mph - N/A   Scattered Clouds
4:43 AM 46.4 °F 42.9 °F 44.6 °F 93% 30.05 in 8.0 mi SE 6.9 mph - N/A   Mostly Cloudy
4:53 AM 46.9 °F - 46.0 °F 97% 30.05 in 4.0 mi SE 6.9 mph - N/A   Overcast
5:53 AM 48.0 °F - 46.9 °F 96% 30.06 in 10.0 mi SE 4.6 mph - N/A   Overcast
6:53 AM 48.9 °F - 48.0 °F 97% 30.08 in 9.0 mi SE 4.6 mph - N/A   Scattered Clouds
7:53 AM 53.1 °F - 48.9 °F 86% 30.08 in 10.0 mi South 5.8 mph - N/A   Clear
8:53 AM 57.0 °F - 48.0 °F 72% 30.09 in 10.0 mi South 4.6 mph - N/A   Clear
9:53 AM 61.0 °F - 48.0 °F 62% 30.09 in 10.0 mi SSE 5.8 mph - N/A   Clear
10:53 AM 64.9 °F - 45.0 °F 48% 30.08 in 10.0 mi SW 6.9 mph - N/A   Clear
11:53 AM 66.9 °F - 43.0 °F 42% 30.07 in 10.0 mi Calm Calm - N/A   Mostly Cloudy
12:53 PM 66.9 °F - 39.9 °F 37% 30.06 in 10.0 mi Calm Calm - N/A   Clear
1:53 PM 69.1 °F - 39.0 °F 33% 30.04 in 10.0 mi North 3.5 mph - N/A   Clear
2:53 PM 69.1 °F - 41.0 °F 36% 30.03 in 10.0 mi Calm Calm - N/A   Clear
3:53 PM 66.9 °F - 44.1 °F 44% 30.03 in 10.0 mi NW 3.5 mph - N/A   Clear
4:53 PM 70.0 °F - 41.0 °F 35% 30.01 in 10.0 mi Calm Calm - N/A   Clear
5:53 PM 70.0 °F - 42.1 °F 36% 30.01 in 10.0 mi WSW 3.5 mph - N/A   Clear
6:53 PM 68.0 °F - 42.1 °F 39% 30.00 in 10.0 mi Calm Calm - N/A   Clear
7:53 PM 66.0 °F - 46.9 °F 50% 29.99 in 10.0 mi Calm Calm - N/A   Clear
8:53 PM 64.0 °F - 46.0 °F 52% 30.01 in 10.0 mi East 3.5 mph - N/A   Clear
9:53 PM 61.0 °F - 48.0 °F 62% 30.04 in 10.0 mi Calm Calm - N/A   Clear
10:53 PM 61.0 °F - 48.9 °F 64% 30.06 in 10.0 mi Calm Calm - N/A   Clear
11:53 PM 60.1 °F - 50.0 °F 69% 30.06 in 10.0 mi Calm Calm - N/A   Clear